User: anonymous
Location: Caltech
(34.1382°N, 118.1253°W)
Time: 01:04:11
(UTC-07:00)
Language:

Meteor 2-4 Rocket - Orbit

View from above orbital plane
View from above orbital plane
View from above satellite
View from above satellite

Ground track
Ground track

The orbit data is extracted from the following two-line orbital elements,

1 11289U 79021B   14246.46161302  .00000070  00000-0  31484-4 0  7135
2 11289 081.2437 076.9800 0075162 240.7463 181.6689 14.11439044827260
Epoch (UTC): 03 September 2014 11:04:43
Eccentricity: 0.0075162
inclination: 81.2437°
perigee height: 800 km
apogee height: 909 km
right ascension of ascending node: 76.9800°
argument of perigee: 240.7463°
revolutions per day: 14.11439044
mean anomaly at epoch: 181.6689°
orbit number at epoch: 82726

The dashed part of the orbit path shows where the satellite is in the earth's shadow,  

DLR